User: anonymous   Login
Location: Unspecified
(0.0000°N, 0.0000°E)
Time: 17:53:48
(UTC+02:00)
Language:

Gurwin Techsat 1B - Orbit

View from above orbital plane
View from above orbital plane
View from above satellite
View from above satellite

Ground track
Ground track

The orbit data is extracted from the following two-line orbital elements,

1 25397U 98043D   16120.08200935  .00000018  00000-0  26803-4 0  9999
2 25397  98.5632  66.3091 0002327 106.9159 253.2276 14.23591700924870
Epoch (UTC): 29 April 2016 01:58:05
Eccentricity: 0.0002327
inclination: 98.5632°
perigee height: 811 km
apogee height: 815 km
right ascension of ascending node: 66.3091°
argument of perigee: 106.9159°
revolutions per day: 14.23591700
mean anomaly at epoch: 253.2276°
orbit number at epoch: 92487

The dashed part of the orbit path shows where the satellite is in the earth's shadow,  

DLR